Flag for U.S.A. Weather past 2 weeks in Inverness, Florida, U.S.A.

Now
73 °F

Clear.


Feels Like: 72 °F
Forecast: 71 / 91 °F
Wind: No wind

Location: Ocala Municipal

Current Time: Aug 27, 2014 at 5:06:40 AM

Latest Report: Aug 27, 2014 at 4:35 AM


Visibility: 10 mi

Pressure: 29.96 "Hg

Humidity: 89%

Dew point: 70 °F

Location of InvernessLocation

Historic Weather in Inverness — Graph

°F

Inverness temperature yesterday

Maximum temperature yesterday: 91 °F (at 2:50 PM)
Minimum temperature yesterday: 72 °F (at 6:15 AM)
Average temperature yesterday: 78 °F

Past Weeks' High & Low Weather Summary

 TemperatureHumidityPressure
High97 °F (Aug 23, 2:50 PM)100% (Aug 13, 6:50 AM)30.16 "Hg (Aug 13, 6:50 AM)
Low70 °F (Aug 16, 3:35 AM)41% (Aug 26, 2:50 PM)29.80 "Hg (Aug 24, 3:50 PM)
Average78 °F84%30.00 "Hg
* Reported Aug 12 3:15 AM — Aug 27 3:55 AM, Inverness, Weather by CustomWeather, © 2014

Note: Actual official high and low records may vary slightly from our data, if they occured in-between our weather recording intervals... More about our weather records

Advertising

Inverness weather history for previous 24 hours

 ConditionsComfort  
Time TempWeatherWind HumidityBarometerVisibility
3:55 AM
Aug 27
73 °FPassing clouds.3 mph89%29.96 "Hg10 mi
3:35 AM73 °FOvercast.5 mph89%29.96 "Hg10 mi
3:15 AM73 °FPassing clouds.No wind89%29.97 "Hg10 mi
2:55 AM73 °FPassing clouds.3 mph89%29.97 "Hg10 mi
2:35 AM73 °FClear.3 mph89%29.97 "Hg10 mi
2:15 AM73 °FClear.5 mph89%29.97 "Hg10 mi
1:55 AM73 °FClear.6 mph89%29.97 "Hg10 mi
1:35 AM73 °FClear.6 mph89%29.97 "Hg10 mi
1:15 AM73 °FClear.5 mph89%29.97 "Hg10 mi
12:55 AM73 °FClear.3 mph89%29.98 "Hg10 mi
12:35 AM73 °FClear.5 mph89%29.98 "Hg10 mi
12:15 AM75 °FClear.5 mph83%29.99 "Hg10 mi
11:55 PM
Aug 26
75 °FClear.5 mph83%29.99 "Hg10 mi
11:35 PM75 °FClear.6 mph83%29.99 "Hg10 mi
11:15 PM75 °FClear.6 mph83%29.99 "Hg10 mi
10:55 PM75 °FClear.6 mph89%29.99 "Hg10 mi
10:35 PM75 °FClear.6 mph83%29.99 "Hg10 mi
10:15 PM75 °FClear.8 mph83%29.99 "Hg10 mi
9:55 PM77 °FClear.6 mph79%29.99 "Hg10 mi
9:35 PM77 °FClear.7 mph79%29.99 "Hg10 mi
9:15 PM77 °FClear.7 mph79%29.98 "Hg10 mi
8:55 PM79 °FSunny.6 mph70%29.97 "Hg10 mi
8:35 PM79 °FScattered clouds.6 mph70%29.97 "Hg10 mi
8:15 PM79 °FOvercast.6 mph70%29.96 "Hg10 mi
7:55 PM81 °FPartly sunny.6 mph66%29.96 "Hg10 mi
6:50 PM84 °FScattered clouds.7 mph62%29.95 "Hg10 mi
5:50 PM88 °FScattered clouds.9 mph49%29.93 "Hg10 mi
4:50 PM90 °FScattered clouds.7 mph46%29.93 "Hg10 mi
3:50 PM90 °FScattered clouds.8 mph46%29.93 "Hg10 mi
2:50 PM91 °FScattered clouds.10 mph41%29.94 "Hg10 mi
1:50 PM90 °FScattered clouds.12 mph46%29.96 "Hg10 mi
12:50 PM88 °FPassing clouds.7 mph52%29.96 "Hg10 mi
11:50 AM88 °FScattered clouds.8 mph52%29.97 "Hg10 mi
10:50 AM84 °FScattered clouds.7 mph66%29.97 "Hg10 mi
9:50 AM81 °FPassing clouds.5 mph79%29.96 "Hg10 mi
8:50 AM77 °FPassing clouds.8 mph89%29.94 "Hg10 mi
7:50 AM73 °FPassing clouds.6 mph94%29.94 "Hg10 mi
6:50 AM72 °FClear.5 mph94%29.92 "Hg10 mi
6:35 AM72 °FClear.3 mph94%29.92 "Hg10 mi
6:15 AM72 °FClear.5 mph94%29.91 "Hg10 mi
5:55 AM73 °FClear.3 mph89%29.91 "Hg10 mi
5:35 AM73 °FClear.5 mph89%29.91 "Hg10 mi
5:15 AM73 °FClear.3 mph89%29.91 "Hg10 mi
Weather by CustomWeather, © 2014

See weather overviewHow to use our weather pages